Location: Newark
(11.2914°S, 14.4718°E)
Time: 06:40:11
(UTC+00:00)

Tiros 1 despin weight - Pass Details

Date: 22 September 2019
Orbit: 593 x 643 km, 48.2° (Epoch: 21 October)

Event Time Altitude Azimuth Distance (km) Brightness Sun altitude
Rises 19:49:45 0° 322° (NW) 2,814 - -42.7°
Reaches altitude 10° 19:52:01 10° 323° (NW) 1,921 - -43.3°
Maximum altitude 19:56:25 80° 51° (NE) 612 - -44.3°
Drops below altitude 10° 20:00:55 10° 137° (SE) 1,960 - -45.4°
Sets 20:03:14 0° 138° (SE) 2,876 - -46.0°
